| time (UTC) | temp F | wind direction | speed MPH | gust MPH | rain 1hr in | rain 24hr in | rain mn in | humidity % | barometer mb |
| 20260507010217 | 64 | 306 | 0.0 | 0.0 | 0.00 | 1.50 | 1.50 | 87 | 1009.9 |
| 20260507005716 | 65 | 306 | 0.0 | 0.0 | 0.00 | 1.50 | 1.50 | 87 | 1009.7 |
| 20260507005217 | 65 | 306 | 0.0 | 0.0 | 0.00 | 1.50 | 1.50 | 86 | 1009.5 |
| 20260507004717 | 66 | 306 | 0.0 | 3.0 | 0.00 | 1.50 | 1.50 | 85 | 1009.5 |
| 20260507004217 | 66 | 306 | 1.0 | 3.0 | 0.00 | 1.50 | 1.50 | 85 | 1009.7 |
| 20260507003718 | 66 | 306 | 0.0 | 3.0 | 0.00 | 1.50 | 1.50 | 86 | 1009.5 |
| 20260507003217 | 66 | 301 | 2.0 | 3.0 | 0.00 | 1.50 | 1.50 | 86 | 1009.2 |
| 20260507002717 | 66 | 288 | 0.0 | 0.0 | 0.00 | 1.50 | 1.50 | 86 | 1009.3 |
| 20260507002218 | 66 | 288 | 0.0 | 0.0 | 0.00 | 1.50 | 1.50 | 86 | 1009.0 |
| 20260507001717 | 66 | 288 | 0.0 | 0.0 | 0.00 | 1.50 | 1.50 | 85 | 1009.0 |
| 20260507001217 | 66 | 288 | 0.0 | 0.0 | 0.00 | 1.50 | 1.50 | 85 | 1008.9 |
| 20260507000717 | 66 | 288 | 0.0 | 0.0 | 0.00 | 1.50 | 1.50 | 85 | 1009.1 |
| 20260507000216 | 67 | 288 | 0.0 | 0.0 | 0.00 | 1.50 | 1.50 | 86 | 1009.0 |
| 20260506235716 | 67 | 288 | 0.0 | 0.0 | 0.00 | 1.50 | 1.50 | 86 | 1008.8 |
| 20260506235217 | 67 | 288 | 0.0 | 0.0 | 0.00 | 1.50 | 1.50 | 86 | 1008.9 |
| 20260506234717 | 67 | 288 | 0.0 | 0.0 | 0.00 | 1.50 | 1.50 | 85 | 1008.8 |
| 20260506234216 | 67 | 288 | 0.0 | 0.0 | 0.00 | 1.50 | 1.50 | 85 | 1008.4 |
| 20260506233718 | 67 | 288 | 0.0 | 0.0 | 0.00 | 1.50 | 1.50 | 85 | 1008.6 |
| 20260506233217 | 67 | 288 | 0.0 | 0.0 | 0.00 | 1.50 | 1.50 | 84 | 1008.6 |
| 20260506232717 | 67 | 288 | 0.0 | 0.0 | 0.00 | 1.50 | 1.50 | 83 | 1008.6 |
| 20260506232216 | 67 | 130 | 0.0 | 0.0 | 0.00 | 1.50 | 1.50 | 83 | 1008.4 |
| 20260506231716 | 67 | 130 | 0.0 | 0.0 | 0.00 | 1.50 | 1.50 | 82 | 1008.3 |
| 20260506231216 | 67 | 130 | 0.0 | 0.0 | 0.00 | 1.50 | 1.50 | 82 | 1008.4 |
| 20260506230716 | 68 | 130 | 0.0 | 0.0 | 0.00 | 1.50 | 1.50 | 82 | 1008.3 |
| 20260506230216 | 68 | 130 | 0.0 | 0.0 | 0.00 | 1.50 | 1.50 | 82 | 1008.4 |
| 20260506225717 | 68 | 130 | 0.0 | 0.0 | 0.00 | 1.50 | 1.50 | 82 | 1008.5 |
| 20260506225217 | 68 | 130 | 0.0 | 0.0 | 0.00 | 1.50 | 1.50 | 83 | 1008.4 |
| 20260506224717 | 68 | 130 | 0.0 | 0.0 | 0.00 | 1.50 | 1.50 | 83 | 1008.3 |
| 20260506224217 | 68 | 130 | 0.0 | 0.0 | 0.00 | 1.50 | 1.50 | 82 | 1008.3 |
| 20260506223716 | 68 | 130 | 0.0 | 0.0 | 0.00 | 1.50 | 1.50 | 81 | 1008.2 |
| 20260506223216 | 67 | 130 | 0.0 | 0.0 | 0.00 | 1.50 | 1.50 | 82 | 1008.1 |
| 20260506222717 | 67 | 130 | 0.0 | 0.0 | 0.00 | 1.50 | 1.50 | 82 | 1008.5 |
| 20260506222220 | 67 | 130 | 0.0 | 0.0 | 0.00 | 1.50 | 1.50 | 82 | 1008.5 |
| 20260506221723 | 68 | 130 | 0.0 | 0.0 | 0.00 | 1.50 | 1.50 | 82 | 1008.5 |
| 20260506221220 | 68 | 212 | 0.0 | 0.0 | 0.00 | 1.50 | 1.50 | 81 | 1008.4 |
| 20260506220722 | 68 | 213 | 0.0 | 0.0 | 0.00 | 1.50 | 1.50 | 80 | 1008.4 |
| 20260506220220 | 68 | 213 | 0.0 | 0.0 | 0.00 | 1.50 | 1.50 | 80 | 1008.4 |
| 20260506215720 | 68 | 213 | 0.0 | 0.0 | 0.00 | 1.50 | 1.50 | 80 | 1008.4 |
| 20260506215223 | 68 | 213 | 0.0 | 0.0 | 0.00 | 1.50 | 1.50 | 79 | 1008.3 |
| 20260506214721 | 68 | 213 | 0.0 | 0.0 | 0.00 | 1.50 | 1.50 | 80 | 1008.3 |
| 20260506214219 | 68 | 213 | 0.0 | 1.0 | 0.00 | 1.50 | 1.50 | 79 | 1008.2 |
| 20260506213720 | 69 | 213 | 0.0 | 1.0 | 0.00 | 1.50 | 1.50 | 79 | 1008.1 |
| 20260506213221 | 69 | 213 | 0.0 | 0.0 | 0.00 | 1.50 | 1.50 | 79 | 1008.1 |
| 20260506212722 | 69 | 213 | 0.0 | 0.0 | 0.00 | 1.50 | 1.50 | 78 | 1008.0 |
| 20260506212219 | 69 | 15 | 0.0 | 1.0 | 0.00 | 1.50 | 1.50 | 79 | 1008.0 |
| 20260506211721 | 69 | 15 | 0.0 | 1.0 | 0.00 | 1.50 | 1.50 | 80 | 1008.0 |
| 20260506211220 | 69 | 278 | 0.0 | 3.0 | 0.00 | 1.50 | 1.50 | 78 | 1008.0 |
| 20260506210720 | 69 | 278 | 0.0 | 3.0 | 0.00 | 1.50 | 1.50 | 78 | 1008.0 |
| 20260506210219 | 69 | 278 | 0.0 | 1.0 | 0.00 | 1.50 | 1.50 | 78 | 1007.9 |
| 20260506205720 | 69 | 300 | 0.0 | 2.0 | 0.00 | 1.50 | 1.50 | 78 | 1007.8 |
| 20260506205219 | 69 | 300 | 0.0 | 3.0 | 0.00 | 1.50 | 1.50 | 78 | 1007.9 |
| 20260506204721 | 69 | 253 | 1.0 | 3.0 | 0.00 | 1.50 | 1.50 | 79 | 1007.8 |
| 20260506204222 | 69 | 123 | 0.0 | 3.0 | 0.00 | 1.50 | 1.50 | 77 | 1007.6 |
| 20260506203720 | 69 | 311 | 0.0 | 3.0 | 0.00 | 1.50 | 1.50 | 80 | 1007.6 |
| 20260506203220 | 69 | 293 | 0.0 | 1.0 | 0.00 | 1.50 | 1.50 | 80 | 1007.8 |
| 20260506202720 | 68 | 293 | 0.0 | 1.0 | 0.00 | 1.50 | 1.50 | 79 | 1008.0 |
| 20260506202504 | 68 | 294 | 0.0 | 3.0 | 0.00 | 1.50 | 1.50 | 79 | 1007.9 |
| 20260506202004 | 68 | 221 | 0.0 | 3.0 | 0.00 | 1.50 | 1.50 | 79 | 1007.9 |
| 20260506201506 | 68 | 221 | 1.0 | 3.0 | 0.00 | 1.50 | 1.50 | 77 | 1007.8 |
| 20260506201004 | 69 | 207 | 0.0 | 3.0 | 0.00 | 1.50 | 1.50 | 77 | 1007.8 |
| 20260506200216 | 69 | 225 | 0.0 | 3.0 | 0.00 | 1.50 | 1.50 | 77 | 1007.8 |
| 20260506195716 | 69 | 231 | 0.0 | 3.0 | 0.00 | 1.50 | 1.50 | 77 | 1007.9 |
| 20260506195217 | 69 | 247 | 1.0 | 3.0 | 0.00 | 1.50 | 1.50 | 78 | 1007.9 |
| 20260506194718 | 68 | 299 | 0.0 | 3.0 | 0.00 | 1.50 | 1.50 | 78 | 1008.0 |
| 20260506194217 | 68 | 235 | 1.0 | 3.0 | 0.00 | 1.50 | 1.50 | 79 | 1008.0 |
| 20260506193717 | 68 | 271 | 0.0 | 3.0 | 0.00 | 1.50 | 1.50 | 81 | 1007.9 |
| 20260506193218 | 68 | 266 | 1.0 | 3.0 | 0.00 | 1.50 | 1.50 | 79 | 1007.9 |
| 20260506192718 | 68 | 228 | 0.0 | 3.0 | 0.00 | 1.50 | 1.50 | 79 | 1007.9 |
| 20260506192220 | 68 | 227 | 1.0 | 3.0 | 0.00 | 1.50 | 1.50 | 81 | 1008.0 |
| 20260506191720 | 67 | 203 | 0.0 | 3.0 | 0.00 | 1.50 | 1.50 | 82 | 1008.1 |
| 20260506191220 | 67 | 202 | 2.0 | 3.0 | 0.00 | 1.50 | 1.50 | 82 | 1008.1 |
| 20260506190720 | 67 | 201 | 0.0 | 3.0 | 0.00 | 1.50 | 1.50 | 81 | 1008.1 |
| 20260506190220 | 66 | 273 | 0.0 | 3.0 | 0.00 | 1.50 | 1.50 | 83 | 1008.2 |
| 20260506185720 | 66 | 341 | 0.0 | 3.0 | 0.00 | 1.50 | 1.50 | 83 | 1008.2 |
| 20260506185220 | 66 | 211 | 1.0 | 3.0 | 0.00 | 1.50 | 1.50 | 82 | 1008.4 |
| 20260506184722 | 66 | 196 | 0.0 | 5.0 | 0.00 | 1.50 | 1.50 | 83 | 1008.5 |
| 20260506184220 | 65 | 196 | 1.0 | 5.0 | 0.00 | 1.50 | 1.50 | 84 | 1008.5 |
| 20260506183720 | 65 | 222 | 0.0 | 0.0 | 0.00 | 1.50 | 1.50 | 84 | 1008.6 |
| 20260506183220 | 65 | 227 | 0.0 | 1.0 | 0.00 | 1.50 | 1.50 | 84 | 1008.5 |
| 20260506182717 | 65 | 227 | 0.0 | 1.0 | 0.00 | 1.50 | 1.50 | 84 | 1008.5 |
| 20260506182217 | 65 | 233 | 0.0 | 0.0 | 0.00 | 1.50 | 1.50 | 85 | 1008.5 |
| 20260506181717 | 64 | 200 | 0.0 | 3.0 | 0.00 | 1.50 | 1.50 | 85 | 1008.6 |
| 20260506181216 | 64 | 180 | 0.0 | 3.0 | 0.00 | 1.50 | 1.50 | 85 | 1008.6 |
| 20260506180718 | 64 | 222 | 0.0 | 3.0 | 0.00 | 1.50 | 1.50 | 86 | 1008.6 |
| 20260506180217 | 64 | 257 | 1.0 | 3.0 | 0.00 | 1.50 | 1.50 | 86 | 1008.7 |
| 20260506175718 | 64 | 257 | 2.0 | 3.0 | 0.00 | 1.50 | 1.50 | 87 | 1008.8 |
| 20260506175218 | 64 | 271 | 0.0 | 3.0 | 0.00 | 1.50 | 1.50 | 85 | 1008.8 |
| 20260506174717 | 64 | 232 | 2.0 | 3.0 | 0.00 | 1.50 | 1.50 | 87 | 1008.7 |
| 20260506174218 | 64 | 220 | 0.0 | 3.0 | 0.00 | 1.50 | 1.50 | 86 | 1008.7 |
| 20260506173717 | 64 | 198 | 1.0 | 3.0 | 0.00 | 1.50 | 1.50 | 86 | 1008.7 |
| 20260506173216 | 63 | 225 | 2.0 | 5.0 | 0.00 | 1.50 | 1.50 | 87 | 1008.7 |
| 20260506172716 | 63 | 205 | 1.0 | 5.0 | 0.00 | 1.50 | 1.50 | 88 | 1008.7 |
| 20260506172217 | 63 | 192 | 2.0 | 3.0 | 0.00 | 1.50 | 1.50 | 88 | 1008.7 |
| 20260506171718 | 63 | 206 | 1.0 | 5.0 | 0.00 | 1.50 | 1.50 | 88 | 1008.8 |
| 20260506171217 | 63 | 254 | 1.0 | 5.0 | 0.00 | 1.50 | 1.50 | 89 | 1008.8 |
| 20260506170717 | 62 | 198 | 1.0 | 3.0 | 0.00 | 1.50 | 1.50 | 89 | 1008.7 |
| 20260506170216 | 62 | 214 | 2.0 | 5.0 | 0.00 | 1.50 | 1.50 | 89 | 1008.8 |
| 20260506165719 | 62 | 186 | 2.0 | 5.0 | 0.00 | 1.50 | 1.50 | 89 | 1008.8 |
| 20260506165216 | 62 | 193 | 1.0 | 6.0 | 0.00 | 1.50 | 1.50 | 90 | 1008.9 |
| 20260506164717 | 62 | 222 | 0.0 | 6.0 | 0.00 | 1.50 | 1.50 | 90 | 1008.9 |
| 20260506164216 | 62 | 191 | 1.0 | 3.0 | 0.00 | 1.50 | 1.50 | 90 | 1009.0 |
| 20260506163717 | 62 | 209 | 1.0 | 3.0 | 0.10 | 1.50 | 1.50 | 91 | 1009.0 |
| 20260506163216 | 61 | 208 | 1.0 | 3.0 | 0.10 | 1.50 | 1.50 | 91 | 1008.8 |
| 20260506162718 | 61 | 190 | 2.0 | 5.0 | 0.10 | 1.50 | 1.50 | 91 | 1008.8 |
| 20260506162220 | 61 | 191 | 2.0 | 5.0 | 0.10 | 1.50 | 1.50 | 91 | 1008.9 |
| 20260506161720 | 61 | 194 | 1.0 | 5.0 | 0.10 | 1.50 | 1.50 | 91 | 1009.0 |
| 20260506161219 | 61 | 194 | 1.0 | 5.0 | 0.10 | 1.50 | 1.50 | 91 | 1009.0 |
| 20260506160720 | 61 | 195 | 1.0 | 5.0 | 0.10 | 1.50 | 1.50 | 92 | 1009.0 |
| 20260506160220 | 61 | 222 | 2.0 | 5.0 | 0.10 | 1.50 | 1.50 | 92 | 1009.3 |
| 20260506155721 | 61 | 223 | 0.0 | 3.0 | 0.10 | 1.50 | 1.50 | 92 | 1009.1 |
| 20260506155220 | 61 | 206 | 1.0 | 5.0 | 0.10 | 1.50 | 1.50 | 92 | 1009.1 |
| 20260506154720 | 60 | 183 | 2.0 | 5.0 | 0.20 | 1.50 | 1.50 | 93 | 1009.0 |
| 20260506154220 | 60 | 184 | 1.0 | 5.0 | 0.30 | 1.50 | 1.50 | 92 | 1009.1 |
| 20260506153720 | 60 | 193 | 2.0 | 5.0 | 0.20 | 1.40 | 1.40 | 93 | 1009.1 |
| 20260506153220 | 60 | 206 | 2.0 | 14.0 | 0.20 | 1.40 | 1.40 | 93 | 1009.2 |
| 20260506152717 | 60 | 186 | 3.0 | 14.0 | 0.20 | 1.40 | 1.40 | 93 | 1009.2 |
| 20260506152217 | 60 | 201 | 2.0 | 5.0 | 0.30 | 1.40 | 1.40 | 93 | 1009.4 |
| 20260506151717 | 60 | 205 | 2.0 | 6.0 | 0.30 | 1.40 | 1.40 | 93 | 1009.4 |
| 20260506151218 | 60 | 198 | 2.0 | 6.0 | 0.40 | 1.40 | 1.40 | 93 | 1009.4 |
| 20260506150717 | 60 | 194 | 2.0 | 5.0 | 0.40 | 1.40 | 1.40 | 93 | 1009.5 |
| 20260506150217 | 60 | 196 | 0.0 | 5.0 | 0.40 | 1.40 | 1.40 | 93 | 1009.8 |
| 20260506145716 | 60 | 182 | 2.0 | 3.0 | 0.50 | 1.40 | 1.40 | 93 | 1009.8 |
| 20260506145218 | 60 | 194 | 1.0 | 5.0 | 0.50 | 1.40 | 1.40 | 93 | 1009.9 |
| 20260506144720 | 60 | 200 | 2.0 | 5.0 | 0.40 | 1.30 | 1.30 | 93 | 1010.0 |
| 20260506144219 | 60 | 199 | 2.0 | 5.0 | 0.40 | 1.20 | 1.20 | 93 | 1010.0 |
| 20260506143718 | 60 | 199 | 2.0 | 6.0 | 0.40 | 1.20 | 1.20 | 93 | 1009.8 |
| 20260506143217 | 60 | 190 | 2.0 | 6.0 | 0.50 | 1.20 | 1.20 | 93 | 1010.0 |
| 20260506142717 | 60 | 183 | 2.0 | 5.0 | 0.60 | 1.20 | 1.20 | 93 | 1009.8 |
| 20260506142217 | 60 | 195 | 1.0 | 5.0 | 0.50 | 1.10 | 1.10 | 92 | 1009.7 |
| 20260506141717 | 60 | 196 | 3.0 | 5.0 | 0.50 | 1.10 | 1.10 | 92 | 1009.8 |
| 20260506141217 | 60 | 199 | 2.0 | 5.0 | 0.50 | 1.00 | 1.00 | 92 | 1009.6 |
| 20260506140717 | 60 | 193 | 1.0 | 5.0 | 0.50 | 1.00 | 1.00 | 92 | 1009.6 |
| 20260506140220 | 60 | 201 | 1.0 | 5.0 | 0.60 | 1.00 | 1.00 | 92 | 1009.6 |
| 20260506135717 | 60 | 200 | 0.0 | 5.0 | 0.60 | 0.90 | 0.90 | 92 | 1009.7 |
| 20260506135217 | 60 | 183 | 2.0 | 5.0 | 0.60 | 0.90 | 0.90 | 92 | 1009.8 |
| 20260506134717 | 60 | 174 | 1.0 | 3.0 | 0.60 | 0.90 | 0.90 | 92 | 1009.8 |
| 20260506134218 | 60 | 174 | 1.0 | 3.0 | 0.60 | 0.80 | 0.80 | 92 | 1010.0 |
| 20260506133718 | 60 | 198 | 0.0 | 2.0 | 0.60 | 0.80 | 0.80 | 92 | 1010.2 |
| 20260506133218 | 60 | 200 | 0.0 | 2.0 | 0.60 | 0.70 | 0.70 | 91 | 1010.4 |
| 20260506132715 | 60 | 200 | 0.0 | 3.0 | 0.50 | 0.60 | 0.60 | 91 | 1010.5 |
| 20260506132214 | 60 | 198 | 0.0 | 3.0 | 0.60 | 0.60 | 0.60 | 91 | 1010.4 |
| 20260506131715 | 61 | 199 | 0.0 | 1.0 | 0.60 | 0.60 | 0.60 | 91 | 1010.1 |
| 20260506131214 | 61 | 198 | 0.0 | 1.0 | 0.50 | 0.50 | 0.50 | 90 | 1010.0 |
| 20260506130714 | 61 | 198 | 0.0 | 0.0 | 0.50 | 0.50 | 0.50 | 90 | 1010.0 |
| 20260506130214 | 61 | 198 | 0.0 | 0.0 | 0.40 | 0.40 | 0.40 | 89 | 1009.9 |
| 20260506125714 | 61 | 198 | 0.0 | 1.0 | 0.30 | 0.30 | 0.30 | 89 | 1009.9 |
| 20260506125216 | 61 | 198 | 0.0 | 1.0 | 0.30 | 0.30 | 0.30 | 88 | 1009.7 |
| 20260506124717 | 61 | 137 | 0.0 | 0.0 | 0.30 | 0.30 | 0.30 | 88 | 1009.7 |
| 20260506124213 | 61 | 137 | 0.0 | 0.0 | 0.20 | 0.20 | 0.20 | 87 | 1009.8 |
| 20260506123715 | 61 | 230 | 0.0 | 0.0 | 0.20 | 0.20 | 0.20 | 86 | 1009.7 |
| 20260506123214 | 62 | 230 | 0.0 | 0.0 | 0.10 | 0.10 | 0.10 | 85 | 1010.0 |
| 20260506122715 | 62 | 230 | 0.0 | 0.0 | 0.10 | 0.10 | 0.10 | 84 | 1010.0 |
| 20260506122220 | 62 | 230 | 0.0 | 0.0 | 0.00 | 0.00 | 0.00 | 83 | 1010.1 |
| 20260506121718 | 62 | 230 | 0.0 | 0.0 | 0.00 | 0.00 | 0.00 | 82 | 1010.3 |
| 20260506121217 | 63 | 230 | 0.0 | 0.0 | 0.00 | 0.00 | 0.00 | 81 | 1010.3 |
| 20260506120717 | 63 | 230 | 0.0 | 0.0 | 0.00 | 0.00 | 0.00 | 80 | 1010.3 |
| 20260506120217 | 63 | 231 | 0.0 | 1.0 | 0.00 | 0.00 | 0.00 | 79 | 1010.3 |
| 20260506115717 | 63 | 231 | 0.0 | 1.0 | 0.00 | 0.00 | 0.00 | 77 | 1010.2 |
| 20260506115217 | 64 | 231 | 0.0 | 3.0 | 0.00 | 0.00 | 0.00 | 76 | 1010.2 |
| 20260506114718 | 64 | 222 | 0.0 | 3.0 | 0.00 | 0.00 | 0.00 | 75 | 1010.2 |
| 20260506114217 | 64 | 220 | 0.0 | 3.0 | 0.00 | 0.00 | 0.00 | 75 | 1010.2 |
| 20260506113717 | 64 | 207 | 0.0 | 3.0 | 0.00 | 0.00 | 0.00 | 75 | 1010.0 |
| 20260506113217 | 64 | 207 | 0.0 | 3.0 | 0.00 | 0.00 | 0.00 | 74 | 1009.9 |
| 20260506112717 | 64 | 196 | 0.0 | 3.0 | 0.00 | 0.00 | 0.00 | 74 | 1009.9 |
| 20260506112217 | 64 | 219 | 1.0 | 3.0 | 0.00 | 0.00 | 0.00 | 74 | 1009.8 |
| 20260506111717 | 64 | 220 | 2.0 | 3.0 | 0.00 | 0.00 | 0.00 | 74 | 1009.7 |
| 20260506111218 | 64 | 209 | 1.0 | 5.0 | 0.00 | 0.00 | 0.00 | 73 | 1009.6 |
| 20260506110718 | 65 | 202 | 2.0 | 5.0 | 0.00 | 0.00 | 0.00 | 73 | 1009.5 |
| 20260506110217 | 65 | 186 | 2.0 | 5.0 | 0.00 | 0.00 | 0.00 | 72 | 1009.5 |
| 20260506105717 | 65 | 200 | 2.0 | 5.0 | 0.00 | 0.00 | 0.00 | 72 | 1009.4 |
| 20260506105217 | 65 | 212 | 2.0 | 5.0 | 0.00 | 0.00 | 0.00 | 72 | 1009.4 |
| 20260506104718 | 65 | 198 | 2.0 | 5.0 | 0.00 | 0.00 | 0.00 | 72 | 1009.4 |
| 20260506104217 | 65 | 222 | 2.0 | 5.0 | 0.00 | 0.00 | 0.00 | 72 | 1009.4 |
| 20260506103718 | 65 | 206 | 0.0 | 3.0 | 0.00 | 0.00 | 0.00 | 72 | 1009.2 |
| 20260506103217 | 65 | 206 | 0.0 | 6.0 | 0.00 | 0.00 | 0.00 | 72 | 1009.1 |
| 20260506102720 | 65 | 203 | 2.0 | 6.0 | 0.00 | 0.00 | 0.00 | 71 | 1009.2 |
| 20260506102220 | 65 | 194 | 1.0 | 5.0 | 0.00 | 0.00 | 0.00 | 71 | 1009.2 |
| 20260506101717 | 65 | 203 | 2.0 | 5.0 | 0.00 | 0.00 | 0.00 | 71 | 1009.2 |
| 20260506101217 | 65 | 198 | 2.0 | 5.0 | 0.00 | 0.00 | 0.00 | 71 | 1009.2 |
| 20260506100718 | 65 | 198 | 3.0 | 5.0 | 0.00 | 0.00 | 0.00 | 71 | 1009.1 |
| 20260506100217 | 65 | 190 | 2.0 | 5.0 | 0.00 | 0.00 | 0.00 | 71 | 1009.1 |
| 20260506095718 | 65 | 197 | 1.0 | 5.0 | 0.00 | 0.00 | 0.00 | 70 | 1009.2 |
| 20260506095217 | 65 | 178 | 0.0 | 5.0 | 0.00 | 0.00 | 0.00 | 70 | 1009.2 |
| 20260506094717 | 65 | 216 | 1.0 | 5.0 | 0.00 | 0.00 | 0.00 | 70 | 1009.2 |
| 20260506094217 | 65 | 204 | 1.0 | 5.0 | 0.00 | 0.00 | 0.00 | 70 | 1009.3 |
| 20260506093718 | 65 | 196 | 2.0 | 6.0 | 0.00 | 0.00 | 0.00 | 70 | 1009.3 |
| 20260506093217 | 65 | 190 | 2.0 | 6.0 | 0.00 | 0.00 | 0.00 | 70 | 1009.2 |
| 20260506092717 | 65 | 202 | 2.0 | 6.0 | 0.00 | 0.00 | 0.00 | 70 | 1009.1 |
| 20260506092217 | 65 | 197 | 1.0 | 5.0 | 0.00 | 0.00 | 0.00 | 70 | 1009.2 |
| 20260506091718 | 65 | 192 | 0.0 | 3.0 | 0.00 | 0.00 | 0.00 | 70 | 1009.2 |
| 20260506091219 | 65 | 211 | 1.0 | 3.0 | 0.00 | 0.00 | 0.00 | 69 | 1009.2 |
| 20260506090718 | 65 | 188 | 1.0 | 5.0 | 0.00 | 0.00 | 0.00 | 69 | 1009.3 |
| 20260506090217 | 66 | 186 | 2.0 | 5.0 | 0.00 | 0.00 | 0.00 | 68 | 1009.3 |
| 20260506085717 | 66 | 192 | 1.0 | 5.0 | 0.00 | 0.00 | 0.00 | 68 | 1009.4 |
| 20260506085218 | 66 | 173 | 0.0 | 5.0 | 0.00 | 0.00 | 0.00 | 68 | 1009.4 |
| 20260506084718 | 66 | 184 | 0.0 | 5.0 | 0.00 | 0.00 | 0.00 | 67 | 1009.5 |
| 20260506084217 | 66 | 184 | 0.0 | 5.0 | 0.00 | 0.00 | 0.00 | 67 | 1009.5 |
| 20260506083718 | 66 | 197 | 1.0 | 5.0 | 0.00 | 0.00 | 0.00 | 66 | 1009.5 |
| 20260506083217 | 66 | 197 | 2.0 | 5.0 | 0.00 | 0.00 | 0.00 | 66 | 1009.5 |
| 20260506082718 | 66 | 195 | 1.0 | 5.0 | 0.00 | 0.00 | 0.00 | 66 | 1009.5 |
| 20260506082218 | 67 | 184 | 2.0 | 5.0 | 0.00 | 0.00 | 0.00 | 66 | 1009.5 |
| 20260506081718 | 67 | 184 | 1.0 | 5.0 | 0.00 | 0.00 | 0.00 | 65 | 1009.5 |
| 20260506081218 | 67 | 193 | 1.0 | 3.0 | 0.00 | 0.00 | 0.00 | 65 | 1009.4 |
| 20260506080718 | 67 | 193 | 1.0 | 3.0 | 0.00 | 0.00 | 0.00 | 64 | 1009.3 |
| 20260506080217 | 67 | 199 | 1.0 | 3.0 | 0.00 | 0.00 | 0.00 | 64 | 1009.2 |
| 20260506073217 | 68 | 193 | 0.0 | 5.0 | 0.00 | 0.00 | 0.00 | 62 | 1009.3 |
| 20260506072718 | 68 | 189 | 0.0 | 3.0 | 0.00 | 0.00 | 0.00 | 61 | 1009.4 |
| 20260506072221 | 68 | 186 | 1.0 | 3.0 | 0.00 | 0.00 | 0.00 | 61 | 1009.5 |
| 20260506071721 | 68 | 184 | 1.0 | 3.0 | 0.00 | 0.00 | 0.00 | 61 | 1009.6 |
| 20260506071220 | 69 | 199 | 1.0 | 3.0 | 0.00 | 0.00 | 0.00 | 60 | 1009.6 |
| 20260506070722 | 69 | 200 | 1.0 | 3.0 | 0.00 | 0.00 | 0.00 | 60 | 1009.6 |
| 20260506070221 | 69 | 201 | 2.0 | 5.0 | 0.00 | 0.00 | 0.00 | 59 | 1009.7 |
| 20260506062221 | 70 | 194 | 1.0 | 5.0 | 0.00 | 0.00 | 0.00 | 57 | 1010.0 |
| 20260506061722 | 70 | 194 | 2.0 | 5.0 | 0.00 | 0.00 | 0.00 | 57 | 1010.1 |
| 20260506061220 | 70 | 203 | 1.0 | 6.0 | 0.00 | 0.00 | 0.00 | 57 | 1010.1 |
| 20260506060721 | 70 | 214 | 3.0 | 6.0 | 0.00 | 0.00 | 0.00 | 56 | 1010.1 |
| 20260506060221 | 70 | 201 | 2.0 | 3.0 | 0.00 | 0.00 | 0.00 | 56 | 1010.1 |
| 20260506051220 | 71 | 191 | 2.0 | 5.0 | 0.00 | 0.00 | 0.00 | 55 | 1010.4 |
| 20260506050721 | 71 | 199 | 1.0 | 5.0 | 0.00 | 0.00 | 0.00 | 54 | 1010.6 |
| 20260506050221 | 71 | 201 | 3.0 | 6.0 | 0.00 | 0.00 | 0.00 | 54 | 1010.6 |
| 20260506044722 | 71 | 200 | 2.0 | 6.0 | 0.00 | 0.00 | 0.00 | 53 | 1010.5 |
| 20260506044220 | 71 | 180 | 2.0 | 6.0 | 0.00 | 0.00 | 0.00 | 53 | 1010.5 |
| 20260506043723 | 71 | 194 | 3.0 | 6.0 | 0.00 | 0.00 | 0.00 | 53 | 1010.5 |
| 20260506043222 | 71 | 206 | 3.0 | 8.0 | 0.00 | 0.00 | 0.00 | 53 | 1010.6 |
| 20260506042720 | 71 | 190 | 3.0 | 8.0 | 0.00 | 0.00 | 0.00 | 53 | 1010.6 |
| 20260506042221 | 71 | 196 | 3.0 | 7.0 | 0.00 | 0.00 | 0.00 | 52 | 1010.5 |
| 20260506041721 | 71 | 189 | 2.0 | 7.0 | 0.00 | 0.00 | 0.00 | 52 | 1010.6 |
| 20260506041220 | 72 | 196 | 3.0 | 7.0 | 0.00 | 0.00 | 0.00 | 52 | 1010.6 |
| 20260506040723 | 72 | 198 | 3.0 | 7.0 | 0.00 | 0.00 | 0.00 | 51 | 1010.5 |
| 20260506040222 | 72 | 203 | 4.0 | 8.0 | 0.00 | 0.00 | 0.00 | 51 | 1010.5 |
| 20260506035721 | 72 | 203 | 3.0 | 8.0 | 0.00 | 0.00 | 0.00 | 51 | 1010.5 |
| 20260506035221 | 72 | 210 | 3.0 | 8.0 | 0.00 | 0.00 | 0.00 | 51 | 1010.5 |
| 20260506034720 | 72 | 197 | 2.0 | 7.0 | 0.00 | 0.00 | 0.00 | 51 | 1010.5 |
| 20260506034220 | 72 | 190 | 2.0 | 7.0 | 0.00 | 0.00 | 0.00 | 51 | 1010.4 |
| 20260506033721 | 72 | 184 | 1.0 | 7.0 | 0.00 | 0.00 | 0.00 | 50 | 1010.4 |
| 20260506033220 | 72 | 213 | 3.0 | 7.0 | 0.00 | 0.00 | 0.00 | 50 | 1010.6 |
| 20260506032720 | 72 | 185 | 3.0 | 7.0 | 0.00 | 0.00 | 0.00 | 50 | 1010.5 |
| 20260506032220 | 72 | 188 | 2.0 | 6.0 | 0.00 | 0.00 | 0.00 | 49 | 1010.5 |
| 20260506031721 | 72 | 189 | 1.0 | 6.0 | 0.00 | 0.00 | 0.00 | 49 | 1010.4 |
| 20260506031221 | 72 | 191 | 3.0 | 5.0 | 0.00 | 0.00 | 0.00 | 48 | 1010.4 |
| 20260506030722 | 72 | 196 | 2.0 | 5.0 | 0.00 | 0.00 | 0.00 | 47 | 1010.4 |
| 20260506025720 | 72 | 196 | 1.0 | 6.0 | 0.00 | 0.00 | 0.00 | 47 | 1010.3 |
| 20260506025220 | 72 | 195 | 3.0 | 5.0 | 0.00 | 0.00 | 0.00 | 47 | 1010.3 |
| 20260506024722 | 72 | 190 | 2.0 | 6.0 | 0.00 | 0.00 | 0.00 | 47 | 1010.4 |
| 20260506024220 | 72 | 199 | 3.0 | 6.0 | 0.00 | 0.00 | 0.00 | 46 | 1010.5 |
| 20260506023722 | 72 | 196 | 2.0 | 5.0 | 0.00 | 0.00 | 0.00 | 45 | 1010.5 |
| 20260506023221 | 72 | 195 | 2.0 | 5.0 | 0.00 | 0.00 | 0.00 | 46 | 1010.5 |
| 20260506022715 | 72 | 190 | 1.0 | 5.0 | 0.00 | 0.00 | 0.00 | 45 | 1010.5 |
| 20260506022215 | 72 | 190 | 1.0 | 5.0 | 0.00 | 0.00 | 0.00 | 44 | 1010.6 |
| 20260506021716 | 72 | 190 | 0.0 | 3.0 | 0.00 | 0.00 | 0.00 | 44 | 1010.6 |
| 20260506021215 | 72 | 190 | 0.0 | 3.0 | 0.00 | 0.00 | 0.00 | 43 | 1010.6 |
| 20260506020715 | 72 | 190 | 0.0 | 3.0 | 0.00 | 0.00 | 0.00 | 42 | 1010.5 |
| 20260506020216 | 72 | 190 | 0.0 | 3.0 | 0.00 | 0.00 | 0.00 | 42 | 1010.4 |
| 20260506015715 | 72 | 190 | 0.0 | 2.0 | 0.00 | 0.00 | 0.00 | 42 | 1010.4 |
| 20260506015214 | 73 | 193 | 0.0 | 2.0 | 0.00 | 0.00 | 0.00 | 40 | 1010.3 |
| 20260506014715 | 73 | 198 | 0.0 | 2.0 | 0.00 | 0.00 | 0.00 | 40 | 1010.3 |
| 20260506014214 | 73 | 198 | 0.0 | 0.0 | 0.00 | 0.00 | 0.00 | 39 | 1010.3 |
| 20260506013715 | 74 | 198 | 0.0 | 3.0 | 0.00 | 0.00 | 0.00 | 39 | 1010.3 |
| 20260506013215 | 74 | 198 | 0.0 | 3.0 | 0.00 | 0.00 | 0.00 | 38 | 1010.2 |
| 20260506012715 | 74 | 198 | 1.0 | 5.0 | 0.00 | 0.00 | 0.00 | 38 | 1010.0 |
| 20260506012218 | 74 | 198 | 1.0 | 5.0 | 0.00 | 0.00 | 0.00 | 37 | 1010.0 |
| 20260506011717 | 74 | 198 | 2.0 | 5.0 | 0.00 | 0.00 | 0.00 | 35 | 1010.0 |
| 20260506011218 | 75 | 188 | 2.0 | 5.0 | 0.00 | 0.00 | 0.00 | 35 | 1010.0 |
| 20260506010718 | 75 | 201 | 1.0 | 5.0 | 0.00 | 0.00 | 0.00 | 35 | 1010.0 |